Location: DARK SKY Beskydy - Park tmavé oblohy, www.darkskybeskydy.cz
(49.4926°N, 18.5016°E)
Time: 03:30:54
(UTC+02:00)

A-11 Canister half - Pass Details

Date: 27 February 2024
Orbit: 1513 x 1686 km, 47.2° (Epoch: 24 April)

Event Time Altitude Azimuth Distance (km) Brightness Sun altitude
Rises 02:43:33 0° 249° (WSW) 4,936 - -36.7°
Reaches altitude 10° 02:46:45 10° 248° (WSW) 3,945 - -36.2°
Exits shadow 02:56:20 72° 189° (S) 1,733 9.0 -34.9°
Maximum altitude 02:56:51 74° 166° (SSE) 1,722 9.0 -34.9°
Drops below altitude 10° 03:06:42 10° 85° (E) 3,856 11.8 -33.5°
Sets 03:09:47 0° 83° (E) 4,820 12.5 -33.1°
